[[{"header":{"parameterUnit":"m.s-1","parameterCategory":2,"la1":30.2992,"la2":30.254,"lo1":-89.0895,"lo2":-89.0443,"dy":0.0025,"dx":0.0025,"nx":19,"ny":19,"refTime":"2026-04-12T09:00:00:Z","depth":"0","parameterNumber":2,"parameterNumberName":"U-component_of_CURRENTS"},"data":[0,0,0,0.0431,0.0432,0.0449,0.0449,0.0495,0.0495,0,0,0,0,0,0,0,0,0,0,0,0.0424,0.0424,0.0431,0.0432,0.0449,0.0449,0.0495,0.0495,0,0,0,0,0,0,0,0,0,0,0,0.0424,0.0424,0.0424,0.0432,0.0449,0.0449,0.0495,0.0478,0,0,0,0,0,0,0,0,0,0,0.0459,0.0449,0.0424,0.0424,0.0432,0.0449,0.0449,0.0477,0.0479,0.0492,0,0.0487,0,0.049,0.0498,0.0498,0,0,0,0.0439,0.0447,0.0447,0.0424,0.0432,0.0449,0.0443,0.0478,0.048,0.0494,0.0488,0.049,0.0491,0.0498,0.0499,0.0512,0.0512,0,0,0.0438,0.0434,0.0445,0.0448,0.0428,0.0442,0.0444,0.0479,0.0481,0.0488,0.0491,0.0492,0.0499,0.0499,0.0513,0.0512,0,0,0,0.043,0.0434,0.0433,0.0447,0.0447,0.0443,0.0444,0.0479,0.0478,0.0491,0.0492,0.0499,0.05,0.0513,0.0513,0.0536,0,0,0,0.043,0.0428,0.0432,0.0431,0.0446,0.0461,0.0444,0.0475,0.0479,0.0492,0.0499,0.05,0.0513,0.0513,0.0536,0.0619,0,0,0,0.0425,0.0428,0.0426,0.0431,0.0435,0.046,0.0461,0.0476,0.048,0.0498,0.05,0.0513,0.0513,0.0536,0.0616,0.0829,0,0,0,0.0426,0.0425,0.0426,0.0428,0.0434,0.0442,0.0461,0.047,0.0483,0.0499,0.0513,0.0513,0.0536,0.0614,0.0824,0.1048,0.1089,0,0,0.0426,0.0425,0.0426,0.0428,0.0439,0.0441,0.0454,0.0477,0.0482,0.0505,0.0505,0.0536,0.0616,0.0828,0.1022,0.1066,0,0,0,0.0428,0.0434,0.0435,0.0443,0.0443,0.0465,0.0468,0.0474,0.0496,0.0486,0.0521,0.0572,0.0706,0.0827,0.086,0.0842,0.0511,0.0511,0.0511,0.0459,0.0454,0.0467,0.0465,0.0467,0.0477,0.0507,0.0517,0.0495,0.05,0.0576,0.0738,0.0858,0.0888,0.0861,0.052,0.052,0.052,0.052,0.0497,0.0528,0.0503,0.0517,0.0521,0.0535,0.0557,0.0558,0.0686,0.0582,0.0711,0.0825,0.0928,0.0885,0.0522,0.0521,0.0521,0.0521,0.0521,0.0562,0.0578,0.0566,0.0585,0.061,0.0608,0.0742,0.0749,0.0775,0.0863,0.1128,0.113,0.1124,0.097,0.0971,0.0972,0.0973,0.0974,0.0975,0.0658,0.0641,0.068,0.0674,0.0712,0.0796,0.0894,0.1025,0.1228,0.1249,0.1251,0.1185,0.0879,0.0897,0.0994,0.0991,0.0988,0.0986,0.0985,0.08,0.0766,0.0845,0.0878,0.0954,0.1087,0.1168,0.1507,0.1665,0.1834,0.1684,0.1485,0.1552,0.1525,0.156,0.1824,0.1824,0.1824,0.1824,0.0909,0.0888,0.1032,0.1117,0.1211,0.125,0.1557,0.1768,0.1985,0.2062,0.201,0.1873,0.184,0.1912,0.1876,0.1912,0.2259,0.2259,0.2259,0.1032,0.106,0.121,0.125,0.1335,0.1443,0.1672,0.1865,0.2166,0.2261,0.1942,0.1924,0.1688,0.1639,0.171,0.1662,0.1705,0,0]},{"header":{"parameterUnit":"m.s-1","parameterCategory":2,"la1":30.2992,"la2":30.254,"lo1":-89.0895,"lo2":-89.0443,"dy":0.0025,"dx":0.0025,"nx":19,"ny":19,"refTime":"2026-04-12T09:00:00:Z","depth":"0","parameterNumber":3,"parameterNumberName":"V-component_of_CURRENTS"},"data":[0,0,0,-0.0342,-0.0342,-0.0337,-0.0337,-0.0357,-0.0357,0,0,0,0,0,0,0,0,0,0,0,-0.0348,-0.0348,-0.0342,-0.0342,-0.0337,-0.0337,-0.0357,-0.0357,0,0,0,0,0,0,0,0,0,0,0,-0.0348,-0.0348,-0.0348,-0.0342,-0.0337,-0.0337,-0.0357,-0.0355,0,0,0,0,0,0,0,0,0,0,-0.0356,-0.0363,-0.0348,-0.0348,-0.0342,-0.0337,-0.0337,-0.0354,-0.0355,-0.0367,0,-0.0367,0,-0.0361,-0.0359,-0.0359,0,0,0,-0.0344,-0.0362,-0.0355,-0.0348,-0.0342,-0.0337,-0.034,-0.0354,-0.0355,-0.0368,-0.0368,-0.0368,-0.0362,-0.0359,-0.036,-0.0407,-0.0407,0,0,-0.0344,-0.0353,-0.0354,-0.0355,-0.0343,-0.034,-0.0339,-0.0355,-0.0361,-0.0368,-0.0368,-0.0362,-0.036,-0.036,-0.0407,-0.0407,0,0,0,-0.0344,-0.0354,-0.0345,-0.0355,-0.0351,-0.034,-0.0339,-0.036,-0.0356,-0.0368,-0.0362,-0.036,-0.036,-0.0406,-0.0407,-0.0372,0,0,0,-0.0344,-0.0353,-0.0346,-0.0352,-0.035,-0.0353,-0.0345,-0.0355,-0.0356,-0.0362,-0.036,-0.036,-0.0406,-0.0407,-0.0372,-0.0283,0,0,0,-0.0348,-0.0354,-0.0352,-0.0353,-0.0348,-0.0352,-0.0349,-0.0355,-0.0352,-0.0359,-0.0361,-0.0406,-0.0407,-0.0372,-0.0286,-0.0116,0,0,0,-0.0358,-0.0364,-0.0353,-0.036,-0.0348,-0.0358,-0.0349,-0.0361,-0.0369,-0.036,-0.0406,-0.0407,-0.0372,-0.0288,-0.0121,0.014,0.0181,0,0,-0.037,-0.0366,-0.0369,-0.0359,-0.0365,-0.0358,-0.0372,-0.0377,-0.0385,-0.0402,-0.0403,-0.0372,-0.0286,-0.0117,0.0096,0.014,0,0,0,-0.0375,-0.0373,-0.0376,-0.0376,-0.0381,-0.0364,-0.0387,-0.0385,-0.0388,-0.0392,-0.0397,-0.0343,-0.0237,-0.0092,-0.0059,-0.0169,-0.041,-0.041,-0.041,-0.0389,-0.0386,-0.0384,-0.0379,-0.0387,-0.0383,-0.0357,-0.0359,-0.0403,-0.0402,-0.0337,-0.0208,-0.0062,-0.0031,-0.0154,-0.0401,-0.0401,-0.0401,-0.0401,-0.0371,-0.0345,-0.0362,-0.035,-0.0346,-0.0349,-0.0327,-0.0327,-0.0231,-0.0329,-0.0228,-0.0091,0.0009,-0.0135,-0.0399,-0.04,-0.04,-0.04,-0.04,-0.0335,-0.0318,-0.0319,-0.0291,-0.0271,-0.0274,-0.0116,-0.013,-0.0138,-0.0063,0.0182,0.0184,0.0092,0.0006,0.0008,0.0009,0.001,0.001,0.0011,-0.0269,-0.0274,-0.0213,-0.0209,-0.0162,-0.0061,0.0044,0.017,0.0319,0.0312,0.0315,0.0132,-0.008,-0.0057,0.0028,0.0025,0.0023,0.0021,0.002,-0.0159,-0.0166,-0.0064,-0.0008,0.0126,0.0351,0.0403,0.074,0.0828,0.0969,0.0629,0.0534,0.0593,0.0566,0.0606,0.0858,0.0858,0.0858,0.0858,-0.0065,-0.0072,0.0127,0.0271,0.0447,0.0573,0.1029,0.1214,0.1167,0.108,0.09,0.0779,0.0751,0.0805,0.0773,0.081,0.1109,0.1108,0.1108,0.0047,0.0084,0.0282,0.0408,0.0609,0.0883,0.1327,0.1566,0.1366,0.1089,0.069,0.068,0.0455,0.042,0.0458,0.0422,0.0466,0,0]}],[{"header":{"parameterUnit":"m.s-1","parameterCategory":2,"la1":30.2992,"la2":30.254,"lo1":-89.0895,"lo2":-89.0443,"dy":0.0025,"dx":0.0025,"nx":19,"ny":19,"refTime":"2026-04-12T09:00:00:Z","depth":"2","parameterNumber":2,"parameterNumberName":"U-component_of_CURRENTS"},"data":[0,0,0,0.0406,0.0407,0.0427,0.0428,0.0399,0.0398,0,0,0,0,0,0,0,0,0,0,0,0.0398,0.0398,0.0406,0.0407,0.0427,0.0428,0.0399,0.0398,0,0,0,0,0,0,0,0,0,0,0,0.0398,0.0398,0.0398,0.0407,0.0427,0.0428,0.0399,0.0398,0,0,0,0,0,0,0,0,0,0,0.0385,0.0388,0.0398,0.0398,0.0407,0.0427,0.0428,0.0399,0.0398,0.0372,0,0.0373,0,0.0381,0.0395,0.0394,0,0,0,0.0411,0.0388,0.0389,0.0398,0.0407,0.0427,0.0419,0.0399,0.0398,0.0371,0.0372,0.0372,0.0381,0.0394,0.0394,0.0398,0.0398,0,0,0.041,0.0406,0.0389,0.0388,0.0407,0.0419,0.042,0.0399,0.0397,0.0372,0.0371,0.038,0.0394,0.0393,0.0397,0.0398,0,0,0,0.0404,0.0405,0.0408,0.0389,0.0395,0.0419,0.0421,0.0399,0.0398,0.0371,0.038,0.0393,0.0393,0.0397,0.0397,0.043,0,0,0,0.0403,0.0401,0.0407,0.0405,0.0396,0.0406,0.0421,0.04,0.0398,0.038,0.0393,0.0392,0.0396,0.0397,0.0428,0.0502,0,0,0,0.0398,0.0401,0.0401,0.0405,0.0412,0.0407,0.0406,0.04,0.0402,0.0394,0.0392,0.0396,0.0397,0.0426,0.0497,0.0688,0,0,0,0.0396,0.0391,0.0401,0.0399,0.0411,0.0418,0.0406,0.041,0.0405,0.0393,0.0396,0.0397,0.0426,0.0494,0.0683,0.0758,0.079,0,0,0.0387,0.039,0.0389,0.0398,0.0412,0.0416,0.0433,0.0421,0.0414,0.0398,0.0399,0.0429,0.0497,0.0687,0.0819,0.0849,0,0,0,0.0385,0.0395,0.0397,0.0411,0.0412,0.0441,0.0431,0.0434,0.0448,0.0416,0.0441,0.0485,0.0604,0.0636,0.0661,0.0402,0.0402,0.0402,0.0402,0.0409,0.0409,0.0426,0.0435,0.0438,0.0456,0.0488,0.0498,0.0456,0.048,0.0518,0.0698,0.0726,0.0747,0.0493,0.0494,0.0494,0.0494,0.0494,0.0449,0.0484,0.0471,0.0489,0.0502,0.0519,0.0545,0.0548,0.0665,0.0566,0.068,0.0675,0.0776,0.0497,0.0496,0.0496,0.0496,0.0495,0.0495,0.0521,0.0536,0.0534,0.0562,0.0593,0.0596,0.0716,0.0729,0.0755,0.0836,0.098,0.0979,0.0796,0.0929,0.093,0.0931,0.0932,0.0933,0.0933,0.0613,0.0605,0.0645,0.0654,0.0688,0.0763,0.086,0.0968,0.1103,0.1092,0.1093,0.0849,0.0834,0.0826,0.0951,0.0948,0.0946,0.0944,0.0943,0.0733,0.0711,0.0773,0.0805,0.0877,0.0957,0.1064,0.1291,0.1431,0.1529,0.1263,0.1249,0.1288,0.1266,0.1271,0.1505,0.1505,0.1505,0.1505,0.0819,0.0809,0.0886,0.0943,0.1027,0.1055,0.1221,0.1291,0.1414,0.1391,0.1394,0.1222,0.1204,0.1227,0.1206,0.1203,0.1421,0.142,0.1419,0.0903,0.0906,0.0974,0.0991,0.1069,0.114,0.1179,0.1132,0.1236,0.14,0.1221,0.153,0.1278,0.125,0.1279,0.1248,0.1242,0,0]},{"header":{"parameterUnit":"m.s-1","parameterCategory":2,"la1":30.2992,"la2":30.254,"lo1":-89.0895,"lo2":-89.0443,"dy":0.0025,"dx":0.0025,"nx":19,"ny":19,"refTime":"2026-04-12T09:00:00:Z","depth":"2","parameterNumber":3,"parameterNumberName":"V-component_of_CURRENTS"},"data":[0,0,0,-0.0421,-0.0421,-0.0417,-0.0417,-0.0419,-0.0419,0,0,0,0,0,0,0,0,0,0,0,-0.0428,-0.0428,-0.0421,-0.0421,-0.0417,-0.0417,-0.0419,-0.0419,0,0,0,0,0,0,0,0,0,0,0,-0.0428,-0.0428,-0.0428,-0.0421,-0.0417,-0.0417,-0.0419,-0.042,0,0,0,0,0,0,0,0,0,0,-0.0423,-0.0434,-0.0428,-0.0428,-0.0421,-0.0417,-0.0417,-0.042,-0.042,-0.0422,0,-0.0425,0,-0.0419,-0.0419,-0.0419,0,0,0,-0.0422,-0.0434,-0.0426,-0.0428,-0.0421,-0.0417,-0.0419,-0.042,-0.042,-0.0422,-0.0425,-0.0425,-0.0419,-0.0419,-0.0419,-0.0451,-0.0451,0,0,-0.0422,-0.0433,-0.0426,-0.0426,-0.0425,-0.0419,-0.0419,-0.042,-0.0426,-0.0425,-0.0425,-0.0419,-0.0419,-0.0419,-0.0451,-0.0451,0,0,0,-0.0422,-0.0433,-0.0425,-0.0427,-0.0424,-0.0419,-0.0419,-0.0426,-0.0422,-0.0425,-0.0419,-0.0419,-0.0419,-0.045,-0.0451,-0.0429,0,0,0,-0.0422,-0.0433,-0.0426,-0.0433,-0.0424,-0.0426,-0.0426,-0.0422,-0.0422,-0.0419,-0.0419,-0.0419,-0.045,-0.0451,-0.0428,-0.0352,0,0,0,-0.0427,-0.0434,-0.0433,-0.0433,-0.043,-0.0425,-0.0421,-0.0422,-0.0418,-0.0419,-0.0419,-0.045,-0.045,-0.0428,-0.0354,-0.0246,0,0,0,-0.0438,-0.0437,-0.0434,-0.0433,-0.043,-0.043,-0.0421,-0.043,-0.0433,-0.0419,-0.045,-0.0451,-0.0428,-0.0356,-0.0249,-0.0237,-0.0222,0,0,-0.0438,-0.0438,-0.0435,-0.0432,-0.0427,-0.043,-0.044,-0.0444,-0.0446,-0.0449,-0.045,-0.0428,-0.0355,-0.0246,-0.0284,-0.0267,0,0,0,-0.0436,-0.0434,-0.0434,-0.0432,-0.0432,-0.0428,-0.0449,-0.045,-0.0453,-0.0451,-0.0451,-0.0404,-0.0336,-0.0338,-0.0325,-0.0455,-0.0454,-0.0454,-0.0454,-0.0447,-0.0439,-0.0434,-0.0431,-0.0436,-0.044,-0.0424,-0.0432,-0.0465,-0.0469,-0.0406,-0.0329,-0.0337,-0.0326,-0.0465,-0.0465,-0.0465,-0.0465,-0.0465,-0.043,-0.041,-0.0424,-0.0408,-0.041,-0.0415,-0.0403,-0.0408,-0.0341,-0.0409,-0.0345,-0.034,-0.031,-0.0463,-0.0463,-0.0464,-0.0464,-0.0464,-0.0464,-0.0409,-0.0394,-0.0393,-0.0367,-0.0354,-0.036,-0.0257,-0.0255,-0.0269,-0.0216,-0.017,-0.0171,-0.0236,-0.0181,-0.018,-0.0179,-0.0178,-0.0178,-0.0177,-0.0366,-0.0367,-0.032,-0.0307,-0.0275,-0.0209,-0.0134,-0.0072,-0.0045,-0.0088,-0.0088,-0.023,-0.0239,-0.0218,-0.0165,-0.0168,-0.0169,-0.017,-0.0171,-0.0298,-0.029,-0.0229,-0.0187,-0.0099,0.0001,0.0054,0.0148,0.0199,0.0211,-0.0008,-0.0016,0.0011,-0.0002,0.0025,0.0139,0.0139,0.0139,0.0139,-0.024,-0.0236,-0.0147,-0.0065,0.0037,0.0105,0.03,0.0376,0.0315,0.0239,0.0235,0.0125,0.0109,0.0136,0.012,0.0147,0.0293,0.0294,0.0294,-0.0179,-0.0172,-0.0104,-0.0039,0.0079,0.0213,0.0405,0.0533,0.039,0.0302,0.0282,0.0146,-0.0037,-0.0052,-0.0033,-0.005,-0.0015,0,0]}],[{"header":{"parameterUnit":"m.s-1","parameterCategory":2,"la1":30.2992,"la2":30.254,"lo1":-89.0895,"lo2":-89.0443,"dy":0.0025,"dx":0.0025,"nx":19,"ny":19,"refTime":"2026-04-12T09:00:00:Z","depth":"4","parameterNumber":2,"parameterNumberName":"U-component_of_CURRENTS"},"data":[0,0,0,0.0211,0.0213,0.0316,0.0317,0.0364,0.0364,0,0,0,0,0,0,0,0,0,0,0,0.0176,0.0176,0.0211,0.0213,0.0316,0.0317,0.0364,0.0364,0,0,0,0,0,0,0,0,0,0,0,0.0175,0.0176,0.0177,0.0214,0.0316,0.0317,0.0364,0.0308,0,0,0,0,0,0,0,0,0,0,0.0218,0.0201,0.0176,0.0177,0.0214,0.0316,0.0317,0.0306,0.0311,0.0293,0,0.0312,0,0.0337,0.0365,0.0365,0,0,0,0.0216,0.0197,0.022,0.0177,0.0215,0.0316,0.027,0.031,0.0315,0.0299,0.0313,0.0316,0.0337,0.0365,0.0365,0.0437,0.0438,0,0,0.021,0.0197,0.0216,0.0224,0.0245,0.0267,0.0274,0.0314,0.0322,0.0314,0.0317,0.0338,0.0365,0.0366,0.0437,0.0438,0,0,0,0.0192,0.0193,0.0217,0.0221,0.0245,0.027,0.0278,0.032,0.0327,0.0318,0.0339,0.0366,0.0366,0.0436,0.0437,0.0537,0,0,0,0.0189,0.0183,0.0214,0.0208,0.0245,0.0297,0.0283,0.0325,0.0331,0.0338,0.0366,0.0366,0.0435,0.0437,0.0533,0.0527,0,0,0,0.017,0.0181,0.0193,0.0207,0.0251,0.0297,0.0308,0.0327,0.0342,0.0365,0.0366,0.0435,0.0436,0.0529,0.0522,0.058,0,0,0,0.0153,0.0174,0.0193,0.0221,0.025,0.0302,0.0308,0.0352,0.0374,0.0366,0.0435,0.0437,0.0528,0.0519,0.0577,0.0415,0,0,0,0.0166,0.0176,0.019,0.0209,0.0251,0.0288,0.035,0.0383,0.0393,0.0414,0.0417,0.0534,0.0522,0.058,0.051,0,0,0,0,0.0185,0.0197,0.0213,0.0244,0.0282,0.035,0.0379,0.0436,0.0519,0.0415,0.0539,0.0526,0.0561,0.0456,0.0445,0.0445,0.0444,0.0444,0.0444,0.0179,0.02,0.0225,0.0259,0.0301,0.0392,0.0471,0.055,0.0541,0.062,0.0614,0.0725,0.0621,0.0645,0.0645,0.0646,0.0646,0.0647,0.0647,0.0183,0.0187,0.0231,0.0267,0.034,0.0415,0.0571,0.0633,0.0745,0.0726,0.0756,0.0575,0.0657,0.0655,0.0653,0.0652,0.0651,0.0651,0.065,0.0156,0.0161,0.0193,0.0252,0.0365,0.0477,0.0618,0.074,0.0817,0.0856,0.0736,0.078,0.0765,0.0881,0.0881,0.0882,0.0882,0.0882,0.0882,0.0108,0.0137,0.0169,0.0257,0.0325,0.0467,0.0675,0.0732,0.0815,0.0794,0.0869,0.0803,0.0795,0.0777,0.0886,0.0886,0.0885,0.0885,0.0884,0.0064,0.0083,0.0129,0.0179,0.0316,0.0412,0.0602,0.0702,0.0751,0.0739,0.0774,0.0778,0.0716,0.071,0.0686,0.0773,0.0771,0.077,0,0.0025,0.0039,0.0087,0.0144,0.0223,0.0366,0.0423,0.0511,0.0615,0.061,0.0704,0.074,0.0743,0.0665,0.0658,0.0625,0,0,0,-0.0007,0.0015,0.0033,0.0092,0.018,0.0293,0.0439,0.0469,0.061,0.0603,0.0727,0.0738,0.0736,0.0899,0.0813,0.0804,0.0769,0,0]},{"header":{"parameterUnit":"m.s-1","parameterCategory":2,"la1":30.2992,"la2":30.254,"lo1":-89.0895,"lo2":-89.0443,"dy":0.0025,"dx":0.0025,"nx":19,"ny":19,"refTime":"2026-04-12T09:00:00:Z","depth":"4","parameterNumber":3,"parameterNumberName":"V-component_of_CURRENTS"},"data":[0,0,0,0.0323,0.0323,0.0321,0.032,0.0313,0.0313,0,0,0,0,0,0,0,0,0,0,0,0.0324,0.0324,0.0323,0.0323,0.0321,0.032,0.0313,0.0313,0,0,0,0,0,0,0,0,0,0,0,0.0324,0.0324,0.0324,0.0323,0.0321,0.032,0.0313,0.0314,0,0,0,0,0,0,0,0,0,0,0.0316,0.0323,0.0324,0.0324,0.0323,0.0321,0.032,0.0314,0.0314,0.0316,0,0.0322,0,0.0322,0.0313,0.0313,0,0,0,0.0315,0.0323,0.0322,0.0324,0.0324,0.0321,0.0319,0.0314,0.0314,0.0316,0.0322,0.0322,0.0322,0.0313,0.0313,0.0397,0.0398,0,0,0.0315,0.0321,0.0322,0.0322,0.0332,0.032,0.0319,0.0314,0.0318,0.0322,0.0322,0.0322,0.0313,0.0314,0.0396,0.0397,0,0,0,0.0321,0.0322,0.0321,0.0323,0.0325,0.032,0.0319,0.0318,0.0318,0.0322,0.0322,0.0313,0.0314,0.0395,0.0396,0.0403,0,0,0,0.0321,0.0326,0.0321,0.0325,0.0325,0.0323,0.0324,0.0318,0.0318,0.0322,0.0313,0.0314,0.0394,0.0396,0.0401,0.0379,0,0,0,0.0322,0.0326,0.0328,0.0325,0.0328,0.0323,0.0322,0.0318,0.0318,0.0313,0.0314,0.0393,0.0395,0.0399,0.0376,0.0321,0,0,0,0.0325,0.0339,0.0329,0.035,0.0328,0.0361,0.0322,0.0339,0.0341,0.0314,0.0394,0.0396,0.0398,0.0375,0.0321,0.0315,0,0,0,0.0344,0.0342,0.0355,0.0346,0.0386,0.036,0.0409,0.0389,0.0375,0.0391,0.0393,0.0402,0.0376,0.0321,0.0442,0,0,0,0,0.0363,0.0376,0.0386,0.0407,0.0421,0.0441,0.0434,0.0436,0.044,0.0388,0.0443,0.0427,0.0391,0.0391,0.0407,0.0406,0.0406,0.0406,0.0406,0.0389,0.0403,0.0437,0.0461,0.0485,0.0506,0.051,0.0516,0.0495,0.0511,0.0464,0.047,0.0479,0.0515,0.0515,0.0515,0.0515,0.0515,0.0515,0.0419,0.0429,0.0471,0.051,0.0542,0.0586,0.0588,0.0571,0.0523,0.0533,0.0496,0.0442,0.0517,0.0516,0.0516,0.0516,0.0516,0.0516,0.0516,0.0411,0.0418,0.0458,0.0519,0.0583,0.0616,0.0614,0.0578,0.0523,0.0482,0.0427,0.0453,0.041,0.0438,0.0438,0.0437,0.0437,0.0437,0.0437,0.037,0.0411,0.0451,0.0525,0.0574,0.0606,0.0599,0.0555,0.048,0.042,0.0449,0.0442,0.0445,0.0406,0.0432,0.0433,0.0433,0.0434,0.0434,0.0331,0.0355,0.0409,0.0461,0.0563,0.058,0.0586,0.0503,0.042,0.0348,0.0382,0.0385,0.0361,0.0364,0.0321,0.0323,0.0322,0.0322,0,0.0292,0.0311,0.0384,0.0454,0.0506,0.0556,0.0487,0.0449,0.0365,0.0349,0.0381,0.042,0.0423,0.04,0.0402,0.0356,0,0,0,0.0265,0.0291,0.0336,0.0423,0.0495,0.0461,0.0464,0.0429,0.0392,0.0353,0.0321,0.0321,0.0455,0.0418,0.0388,0.0391,0.0325,0,0]}]]